Terug naar catalogus

STARLINK-30880

ActiefCommunicatieVLEO
NORAD 58232·PAYLOAD·🇺🇸 United States

Gelanceerd Nov 8, 2023 vanaf Cape Canaveral Space Force Station

Loading…

Volgende Passages (komende 24 uur)

TLE

VersSource: CelesTrak SupGP

Epoch: Sep 15, 2026, 03:08 UTC

1 58232C 23171C   26258.13104167  .00014643  00000+0  53037-3 0  2586
2 58232  43.0013 295.0145 0001345 260.1293  17.9717 15.27572006    13

Volg STARLINK-30880 in realtime met AllMySat

Download on the App Store